sat.trackr.live / text

‹ back to catalog

OPTUS D1

NORAD 29495 · 2006-043B

PAYLOAD ACTIVE UNKNOWN

§ Identity

Operator
Country
AUS
Launch date
2006-10-13
Launch site
FRGUI
Launch vehicle
Mass (kg)
RCS (m²)
3.98

Purposes: comms

External: N2YO · Heavens-Above · Gunter

§ Orbital elements

Epoch: 2026-09-10T04:27:49.879872Z

Period
1,436.11 min
Inclination
3.2477°
Eccentricity
0.0003558
Mean motion
1.00270923 rev/d
Perigee alt
35,771.8 km
Apogee alt
35,801.8 km
Semi-major
42,165.0 km
B*
0.0000e+0
RAAN
78.5402°
Arg perigee
90.6180°
Mean anomaly
39.0081°
Rev number
7,297

§ Raw data

OPTUS D11 29495U 06043B   26253.18599398 -.00000202  00000+0  00000+0 0  99952 29495   3.2477  78.5402 0003558  90.6180  39.0081  1.00270923 72975

JSON: /api/v1/satellites/29495 · /tle

For live sub-satellite position, see the globe view (requires WebGL).

§ Visibility from observer

Set your observer location to see the next 7 days of passes ≥ 10°. The values pass through the URL so the page stays shareable.

No JS? Fill the form by hand. The geolocation button needs JavaScript.